Wind_Speed
14 15 16 15 15 14 15 21 21 23 24 23 27 29 32 29 29 31 29 26 27 27 27 27 25 26 26 25 24 26 28 27 26 24 25 27 27 27 26 26 25 25 26 26 26 24 24 23 22
14 14 14 13 13 11 17 21 24 23 22 25 28 29 32 32 32 32 31 31 31 29 28 29 29 29 29 29 27 26 26 26 27 27 27 27 28 29 29 29 28 26 27 28 28 25 26 25 25
9 9 10 10 11 15 18 23 24 19 21 25 27 29 32 32 33 34 32 35 33 32 31 31 32 31 30 31 31 30 29 28 27 27 29 30 29 29 30 31 30 29 28 29 30 29 27 27 28
11 13 13 11 13 19 23 24 24 23 26 27 28 29 30 30 30 30 32 34 35 34 33 32 33 34 34 33 32 33 33 32 30 29 28 30 30 32 32 32 32 32 30 30 31 30 30 28 29
15 16 17 16 19 24 27 29 27 25 32 33 31 34 36 36 35 35 35 36 37 36 36 35 34 34 35 36 35 34 34 34 34 33 31 30 32 34 31 30 32 33 32 30 30 30 31 30 31
17 19 20 21 23 29 31 33 33 33 36 41 40 37 43 44 44 42 42 43 43 43 43 41 41 40 38 38 37 37 37 37 37 36 35 35 34 35 34 32 33 33 33 32 32 31 31 31 32
21 23 25 27 28 33 34 36 36 38 41 44 46 47 49 51 50 49 49 48 47 48 48 48 48 47 46 44 42 41 39 38 39 38 38 37 37 36 34 36 35 35 34 34 34 33 32 33 33
26 28 29 32 32 34 34 38 40 40 42 45 48 52 52 57 56 54 49 48 51 52 52 52 53 53 52 50 48 47 45 43 41 41 40 40 40 40 38 37 36 36 37 37 36 38 35 33 34
29 30 31 33 36 37 36 36 38 38 37 43 49 51 52 52 56 59 58 56 55 57 57 56 53 55 57 56 54 53 51 49 47 45 43 42 41 42 41 39 37 38 38 38 38 39 39 37 35
29 31 32 34 37 37 38 40 40 39 40 45 48 49 50 50 51 55 59 59 58 57 59 60 59 56 58 59 59 58 58 55 52 50 47 46 44 43 43 42 41 40 40 40 40 41 42 40 39
29 32 35 35 36 36 37 40 42 43 42 48 49 49 52 54 56 58 57 57 57 58 60 61 62 62 61 62 62 61 61 61 59 55 52 51 49 46 44 43 43 43 42 42 42 42 43 44 43
30 33 34 35 36 38 39 41 42 45 48 47 51 53 54 55 57 58 60 61 61 62 63 64 66 67 66 65 66 67 65 64 63 61 58 56 54 50 48 45 44 44 45 48 46 44 45 47 47
30 33 35 37 40 43 44 46 47 45 50 50 51 53 57 59 60 61 64 65 66 65 66 68 69 70 71 71 69 69 68 68 66 65 63 61 59 56 53 51 49 47 45 42 48 47 47 48 49
33 35 38 40 44 47 46 47 52 53 54 55 56 57 57 58 61 62 65 67 69 70 71 71 72 73 73 75 75 74 73 71 70 68 66 65 64 61 59 56 53 51 51 49 43 48 51 51 52
34 37 39 42 47 47 45 44 50 52 53 54 57 59 60 61 62 65 67 70 71 73 74 75 75 75 77 78 77 78 77 77 74 72 70 69 67 67 64 61 58 58 54 55 54 47 52 54 54
36 39 43 46 46 46 45 41 50 54 53 54 57 59 61 61 61 60 61 62 64 68 70 72 73 77 79 79 80 80 80 81 80 78 76 73 71 70 68 67 65 58 54 58 65 55 46 54 56
37 40 42 43 43 42 43 41 49 51 54 58 60 59 58 55 52 50 51 53 55 56 60 61 61 63 68 74 78 82 82 81 82 82 81 80 76 74 73 72 72 66 67 53 56 61 52 49 58
39 39 40 40 39 40 45 48 51 53 53 54 53 47 45 45 47 48 49 50 53 55 58 60 60 60 62 63 67 72 77 80 82 84 83 84 83 79 77 76 75 74 72 64 65 43 52 59 61
36 36 36 38 41 42 47 51 54 54 49 42 36 38 43 46 46 46 49 51 55 58 61 62 63 63 63 63 65 66 69 74 79 81 86 87 87 85 82 80 80 77 73 71 67 71 60 57 55
32 33 35 36 41 45 48 51 52 48 38 31 38 41 41 42 45 48 51 54 57 58 59 63 67 67 68 67 67 68 69 68 70 74 79 85 89 89 88 86 85 83 76 73 68 63 59 66 56
32 33 36 38 41 47 51 51 44 33 29 33 35 38 41 43 43 45 49 55 57 56 59 56 57 64 70 71 69 68 70 68 69 68 69 73 83 89 92 91 90 88 80 75 74 72 54 60 62
33 35 37 40 43 48 53 54 34 28 30 36 37 41 41 43 45 50 51 55 57 52 48 50 52 54 58 64 72 71 69 71 69 74 71 68 70 82 92 94 93 93 90 79 75 71 65 59 55
34 36 36 41 43 47 48 45 27 28 35 37 41 42 39 41 45 48 51 56 54 49 50 49 52 55 57 59 66 74 72 69 68 68 71 71 72 73 81 93 97 96 95 87 78 75 75 71 64
35 36 37 41 44 47 46 41 25 31 33 36 39 39 40 39 44 48 49 53 48 50 53 50 46 45 49 53 56 67 74 71 68 66 65 69 68 70 73 79 93 98 97 94 83 76 73 68 67
35 37 38 42 46 49 46 36 27 31 31 33 37 43 45 45 46 48 46 49 44 47 42 40 38 37 39 43 45 48 62 71 68 63 63 64 69 68 69 72 76 90 94 96 89 77 73 70 64
36 36 38 43 46 48 42 27 25 31 32 34 38 44 46 45 43 45 41 45 42 40 38 34 31 30 32 32 29 32 42 56 66 64 59 58 60 67 64 66 67 71 81 88 85 81 71 73 63
36 36 39 42 45 49 45 24 22 33 34 35 40 43 45 44 43 44 42 41 38 36 31 31 27 24 22 16 13 19 28 38 51 59 57 56 54 60 62 64 62 60 61 62 71 61 64 69 65
34 35 39 41 45 48 47 20 25 32 36 38 42 43 45 46 45 43 43 37 33 32 26 26 21 13 9 6 12 17 20 30 37 48 53 51 50 56 60 62 60 53 47 47 54 63 67 60 67
33 33 37 38 42 44 47 18 26 30 35 39 44 45 45 50 46 44 43 40 31 29 26 21 17 13 8 7 10 16 22 24 32 38 43 45 50 53 54 58 56 50 43 41 43 52 65 61 64
31 32 34 36 40 40 44 25 27 29 33 37 44 45 46 48 46 44 44 43 38 27 24 22 16 9 7 8 10 16 20 24 27 31 37 42 45 43 45 53 53 49 43 32 30 42 55 63 54
Wind_Direction
255 258 260 262 266 268 266 266 267 265 263 261 261 264 266 268 265 267 272 269 264 261 258 255 251 250 249 247 244 244 246 246 247 244 247 246 241 238 233 234 233 228 225 230 231 229 235 232 231
246 251 258 263 266 266 262 261 266 265 259 258 259 259 260 261 265 266 269 265 264 262 260 259 256 252 250 250 248 244 245 245 246 244 244 248 248 242 241 235 235 232 229 227 233 231 231 237 235
244 250 259 267 275 269 263 267 265 263 259 257 255 253 257 256 255 259 260 263 262 261 260 259 259 257 253 251 250 248 247 243 244 248 246 245 246 246 242 239 236 234 233 230 230 232 232 231 238
252 260 263 261 260 264 271 273 277 275 268 260 262 265 261 262 258 255 255 256 258 255 254 252 253 254 254 251 251 248 249 250 245 241 246 251 248 244 244 241 237 236 234 232 232 231 234 233 235
265 273 279 275 272 270 279 279 275 274 272 268 267 269 264 261 260 258 257 258 259 258 257 255 251 251 252 251 249 248 247 247 249 248 243 246 250 249 247 247 243 238 237 235 235 235 234 236 236
276 282 282 277 274 276 280 282 283 281 275 274 273 267 267 264 264 263 261 259 258 260 260 258 257 255 252 252 251 248 247 248 249 247 247 245 245 247 246 244 242 242 240 237 237 237 238 238 239
283 285 283 282 277 279 282 282 280 276 273 273 273 274 272 269 265 264 264 262 261 260 259 259 258 256 254 253 251 250 248 247 247 247 246 247 247 246 244 244 245 244 240 239 239 238 237 239 240
287 286 287 286 288 283 285 283 281 281 280 277 274 271 270 268 265 267 267 267 265 262 262 261 260 260 257 254 253 252 251 248 247 247 245 243 244 247 247 246 245 245 244 242 239 241 239 238 240
293 292 291 290 287 285 283 282 284 282 279 278 274 273 274 272 270 267 265 262 261 262 261 257 254 256 256 256 254 253 252 250 248 247 246 245 243 244 246 247 246 244 246 247 245 242 243 242 242
291 292 291 291 289 290 288 287 284 282 283 278 276 276 276 275 272 269 267 266 264 260 259 258 256 252 254 254 253 252 252 251 248 247 245 246 245 244 243 244 245 246 244 244 247 246 245 244 243
293 293 291 289 287 286 286 286 286 285 283 281 280 280 279 274 271 270 269 266 264 262 258 256 255 254 250 251 251 250 250 249 249 247 245 245 245 246 246 247 243 243 246 244 243 245 247 244 242
293 291 288 286 286 289 292 290 290 289 284 282 282 281 280 279 278 275 272 268 263 260 258 256 254 252 251 248 249 248 248 248 247 246 246 245 245 245 246 247 246 246 245 245 244 242 244 245 244
290 290 289 291 293 295 296 295 294 287 288 286 282 280 278 277 275 271 268 266 265 262 261 258 255 254 252 250 247 248 247 246 246 245 244 244 244 243 243 246 247 247 247 248 243 244 244 245 246
295 294 292 293 294 295 296 297 297 294 292 289 289 287 285 281 277 274 271 267 264 261 258 256 256 254 252 251 249 247 247 245 244 244 243 242 243 243 242 244 245 246 249 249 244 240 242 244 244
295 295 293 296 297 296 296 298 295 293 293 294 291 289 287 283 279 275 272 268 265 262 259 257 255 253 252 250 247 246 245 245 244 243 241 241 241 242 242 242 244 245 242 244 246 241 239 240 245
296 296 300 298 295 295 295 296 298 298 297 295 292 290 287 284 281 279 275 271 268 266 263 260 257 254 252 248 246 244 243 241 242 242 242 241 240 240 241 241 241 239 241 240 239 243 240 236 240
298 297 295 296 297 299 299 300 302 304 304 301 297 292 290 288 289 288 285 281 276 271 266 263 259 256 253 252 249 245 242 240 239 238 239 241 240 238 239 240 240 240 243 246 248 235 233 237 238
300 298 299 299 300 306 308 311 310 308 304 299 296 297 296 296 295 294 291 287 282 278 272 266 260 257 254 250 250 248 245 241 238 237 235 236 239 238 238 239 240 239 240 240 244 224 236 235 238
301 302 302 302 305 309 311 313 313 310 306 305 306 301 302 303 302 300 299 297 294 289 283 274 263 257 254 253 250 248 246 243 240 236 234 233 235 237 237 237 239 240 238 239 244 246 250 255 235
303 304 303 304 310 314 315 316 315 311 308 309 306 305 304 305 306 302 296 291 292 293 286 276 270 265 259 256 251 248 245 243 241 238 234 233 232 233 236 236 237 240 237 236 238 246 245 249 237
306 308 308 309 313 317 318 318 315 307 308 307 310 312 312 306 311 309 303 295 291 288 282 278 271 263 256 255 253 247 243 241 239 236 235 233 231 231 231 234 236 238 238 235 235 239 245 245 247
309 309 311 316 320 322 322 321 314 310 312 320 319 315 312 320 320 320 310 303 301 292 284 280 277 274 267 256 247 246 242 238 236 236 235 233 233 232 229 230 233 236 238 234 233 235 232 238 244
312 311 312 318 322 322 323 319 316 321 326 323 320 320 315 320 325 330 322 317 309 297 291 284 279 273 269 262 252 241 239 238 237 235 235 234 233 233 232 229 230 233 236 236 232 232 236 236 235
316 313 314 318 321 324 329 324 323 330 330 326 322 320 323 325 330 329 330 324 313 307 301 292 286 277 271 267 259 245 233 232 233 235 234 231 232 233 233 233 231 231 234 236 233 229 233 234 237
316 313 315 320 325 328 332 325 328 332 330 325 324 331 331 330 329 330 332 329 318 315 306 301 295 287 278 271 262 252 234 228 226 227 230 231 229 231 233 234 235 234 235 236 235 230 230 231 235
315 315 320 323 324 326 332 325 328 331 332 331 334 333 333 330 333 335 334 334 326 322 316 310 305 297 289 282 269 250 230 230 225 223 226 229 230 231 233 234 236 238 239 239 237 233 227 229 229
315 315 318 321 323 326 334 331 326 336 333 339 340 333 333 334 337 339 340 340 332 325 324 323 319 316 303 282 234 220 220 223 227 226 225 228 233 231 232 231 234 239 240 244 241 227 226 227 225
313 315 318 322 325 329 334 340 329 338 339 342 339 340 335 340 339 344 347 338 336 329 326 332 325 321 308 251 208 215 219 218 218 222 224 226 229 229 231 227 230 234 241 240 246 236 224 219 219
313 315 315 319 324 330 331 350 334 342 342 340 340 343 342 343 341 342 351 344 341 330 323 315 321 306 283 234 223 211 219 215 211 217 221 223 224 227 230 226 229 234 241 240 241 238 226 221 220
311 310 312 317 324 331 331 343 327 341 341 339 340 344 347 346 344 345 352 351 348 342 332 324 306 304 245 233 223 224 214 210 205 212 218 220 220 224 229 227 228 233 239 241 226 219 228 221 219
Height
5808 5809 5810 5811 5815 5815 5815 5814 5816 5816 5818 5819 5818 5819 5818 5820 5822 5824 5824 5826 5827 5828 5829 5829 5831 5831 5831 5833 5834 5836 5837 5837 5838 5839 5839 5840 5841 5841 5840 5841 5843 5845 5846 5848 5850 5851 5854 5856 5858
5805 5806 5807 5808 5811 5811 5810 5810 5811 5812 5813 5813 5813 5813 5813 5816 5816 5817 5817 5818 5819 5821 5823 5824 5825 5826 5827 5827 5828 5830 5831 5831 5832 5833 5834 5835 5837 5837 5837 5838 5839 5840 5842 5844 5847 5848 5849 5853 5854
5803 5804 5805 5806 5807 5807 5807 5805 5806 5810 5809 5808 5808 5808 5807 5809 5810 5810 5811 5811 5813 5814 5815 5817 5817 5819 5820 5821 5822 5823 5826 5826 5827 5828 5829 5830 5831 5832 5833 5834 5834 5835 5838 5840 5842 5844 5846 5847 5850
5800 5802 5803 5804 5804 5802 5800 5801 5802 5802 5803 5803 5802 5802 5803 5803 5804 5805 5804 5804 5804 5807 5808 5810 5810 5811 5812 5814 5815 5817 5818 5820 5821 5822 5823 5825 5825 5827 5827 5830 5830 5831 5832 5835 5837 5839 5842 5843 5845
5796 5797 5798 5800 5799 5796 5794 5795 5797 5798 5795 5796 5798 5794 5794 5796 5797 5797 5798 5797 5797 5798 5799 5801 5803 5804 5804 5806 5807 5809 5810 5811 5814 5816 5817 5818 5820 5821 5823 5824 5826 5827 5829 5831 5833 5835 5838 5839 5841
5792 5793 5793 5793 5793 5789 5789 5789 5791 5791 5789 5787 5788 5790 5785 5788 5788 5789 5789 5789 5789 5790 5790 5792 5794 5794 5796 5797 5799 5800 5802 5804 5806 5808 5811 5812 5813 5814 5816 5818 5821 5822 5824 5826 5829 5831 5833 5835 5836
5786 5786 5786 5786 5786 5783 5784 5784 5784 5783 5781 5780 5778 5778 5778 5776 5778 5780 5779 5778 5779 5780 5781 5782 5782 5784 5786 5788 5790 5791 5794 5796 5797 5799 5802 5804 5806 5807 5808 5812 5815 5817 5819 5821 5824 5825 5828 5830 5832
5780 5780 5780 5778 5778 5777 5776 5773 5772 5773 5773 5771 5769 5766 5767 5762 5767 5770 5770 5769 5768 5769 5771 5772 5771 5772 5774 5776 5779 5781 5784 5786 5789 5791 5793 5796 5797 5799 5802 5805 5808 5810 5813 5815 5817 5819 5822 5825 5826
5774 5774 5772 5771 5770 5769 5768 5766 5763 5763 5763 5760 5755 5754 5754 5757 5753 5752 5753 5756 5757 5755 5756 5757 5759 5758 5760 5763 5766 5769 5772 5775 5778 5781 5783 5786 5789 5792 5794 5797 5801 5803 5805 5808 5811 5813 5816 5819 5822
5767 5766 5765 5764 5762 5760 5758 5756 5756 5754 5751 5747 5745 5743 5743 5742 5741 5738 5739 5741 5742 5742 5742 5742 5743 5746 5747 5749 5752 5756 5759 5763 5766 5769 5773 5776 5778 5782 5785 5789 5792 5795 5797 5800 5804 5807 5809 5811 5815
5761 5759 5756 5756 5753 5752 5750 5747 5745 5743 5743 5736 5734 5733 5729 5727 5727 5727 5727 5727 5726 5725 5725 5725 5727 5729 5732 5733 5736 5740 5744 5749 5754 5757 5761 5765 5768 5771 5775 5779 5783 5786 5789 5791 5794 5798 5802 5804 5806
5754 5752 5750 5748 5746 5743 5741 5738 5735 5731 5728 5728 5722 5719 5717 5715 5712 5712 5710 5709 5708 5707 5708 5709 5710 5712 5714 5718 5720 5723 5728 5732 5738 5743 5748 5752 5756 5760 5765 5769 5773 5777 5779 5782 5784 5786 5791 5794 5797
5748 5745 5743 5740 5737 5734 5730 5724 5723 5720 5713 5711 5709 5705 5701 5698 5697 5693 5691 5691 5692 5690 5691 5691 5692 5694 5697 5701 5705 5707 5712 5716 5721 5728 5733 5738 5743 5748 5753 5757 5762 5767 5769 5771 5775 5778 5781 5784 5787
5740 5737 5734 5731 5728 5724 5721 5713 5708 5705 5703 5699 5694 5689 5686 5683 5677 5674 5673 5671 5670 5671 5671 5672 5672 5674 5678 5682 5687 5691 5694 5699 5704 5711 5717 5722 5729 5734 5740 5745 5751 5756 5759 5762 5764 5767 5770 5773 5776
5731 5728 5725 5722 5717 5713 5710 5706 5697 5693 5688 5684 5679 5674 5669 5663 5658 5654 5651 5649 5647 5647 5649 5650 5652 5653 5656 5660 5665 5671 5677 5681 5688 5693 5699 5706 5712 5719 5726 5732 5738 5742 5741 5746 5753 5754 5756 5762 5766
5724 5721 5716 5711 5707 5703 5700 5701 5685 5678 5675 5669 5664 5657 5651 5645 5640 5635 5632 5629 5627 5625 5625 5627 5628 5630 5631 5636 5641 5648 5655 5662 5669 5677 5681 5689 5695 5702 5709 5717 5723 5722 5714 5731 5736 5743 5747 5751 5756
5715 5711 5706 5702 5695 5692 5687 5687 5676 5666 5660 5652 5644 5638 5633 5628 5624 5620 5616 5612 5610 5608 5606 5607 5607 5608 5609 5611 5616 5625 5633 5640 5648 5656 5663 5670 5677 5685 5692 5700 5705 5709 5717 5717 5720 5725 5735 5740 5745
5706 5702 5698 5691 5687 5682 5675 5669 5661 5654 5646 5639 5631 5625 5619 5616 5612 5608 5604 5600 5594 5592 5589 5589 5589 5590 5590 5593 5595 5599 5606 5616 5625 5634 5644 5649 5657 5666 5675 5682 5688 5694 5702 5707 5703 5709 5715 5727 5733
5697 5693 5689 5684 5678 5674 5665 5657 5647 5640 5632 5625 5620 5615 5610 5605 5601 5595 5590 5585 5580 5575 5570 5568 5569 5570 5571 5573 5576 5580 5584 5591 5600 5610 5620 5629 5637 5646 5656 5665 5670 5677 5687 5693 5697 5703 5711 5716 5715
5689 5685 5681 5676 5668 5661 5655 5646 5636 5627 5622 5618 5612 5606 5601 5595 5589 5583 5576 5569 5562 5555 5548 5544 5545 5547 5549 5551 5555 5559 5564 5572 5579 5588 5598 5607 5616 5626 5636 5645 5653 5659 5668 5679 5687 5690 5701 5707 5710
5681 5677 5672 5667 5660 5650 5643 5638 5627 5619 5615 5610 5604 5597 5589 5583 5576 5567 5560 5552 5543 5534 5525 5520 5518 5519 5522 5525 5531 5537 5545 5553 5561 5570 5578 5587 5594 5604 5614 5624 5634 5641 5650 5663 5673 5681 5688 5691 5701
5675 5670 5665 5658 5650 5642 5630 5623 5619 5612 5607 5600 5594 5587 5579 5569 5561 5552 5543 5533 5522 5514 5508 5503 5499 5497 5496 5498 5504 5513 5522 5532 5542 5550 5559 5568 5575 5581 5593 5604 5615 5623 5632 5645 5658 5667 5674 5680 5689
5667 5661 5656 5650 5642 5635 5626 5615 5609 5604 5598 5591 5585 5576 5567 5558 5549 5539 5528 5516 5504 5496 5492 5486 5480 5476 5473 5473 5476 5485 5498 5511 5519 5530 5539 5550 5556 5565 5575 5584 5595 5605 5613 5627 5641 5652 5660 5668 5677
5659 5654 5648 5642 5634 5627 5616 5607 5605 5597 5591 5584 5578 5569 5559 5548 5538 5528 5515 5503 5491 5481 5473 5465 5460 5456 5453 5452 5453 5459 5475 5489 5499 5510 5522 5531 5542 5551 5558 5567 5577 5587 5596 5607 5624 5637 5647 5656 5664
5651 5646 5640 5634 5626 5618 5609 5602 5597 5591 5585 5579 5571 5559 5549 5539 5530 5518 5506 5493 5481 5470 5459 5452 5446 5441 5437 5435 5436 5440 5453 5467 5482 5493 5504 5516 5525 5535 5544 5554 5564 5572 5580 5589 5604 5621 5632 5644 5654
5644 5639 5633 5625 5619 5612 5607 5597 5592 5586 5579 5571 5562 5553 5543 5533 5522 5509 5498 5486 5474 5463 5452 5444 5436 5431 5426 5423 5424 5427 5437 5451 5465 5478 5491 5502 5512 5523 5533 5543 5552 5559 5566 5574 5587 5604 5618 5632 5644
5637 5631 5626 5619 5613 5604 5599 5593 5587 5578 5573 5565 5556 5549 5538 5526 5513 5502 5490 5479 5468 5458 5448 5440 5431 5425 5421 5419 5420 5425 5432 5441 5453 5466 5479 5489 5501 5511 5521 5531 5540 5550 5557 5563 5573 5589 5605 5619 5632
5630 5625 5619 5614 5606 5597 5590 5585 5578 5573 5566 5558 5552 5542 5531 5518 5506 5496 5484 5472 5462 5454 5446 5437 5430 5425 5421 5421 5423 5427 5432 5438 5447 5458 5470 5480 5491 5501 5510 5520 5530 5540 5549 5557 5560 5576 5592 5605 5618
5624 5618 5614 5609 5603 5593 5583 5583 5574 5569 5562 5554 5546 5537 5524 5511 5501 5491 5479 5467 5458 5449 5442 5436 5430 5425 5423 5422 5424 5427 5431 5436 5443 5452 5464 5474 5483 5492 5502 5512 5522 5533 5542 5549 5553 5565 5582 5593 5606
5617 5613 5609 5604 5598 5591 5581 5580 5570 5565 5558 5550 5543 5531 5520 5508 5497 5486 5474 5465 5454 5446 5439 5433 5430 5425 5423 5423 5424 5427 5430 5433 5439 5448 5459 5468 5476 5485 5494 5504 5515 5525 5534 5542 5547 5558 5568 5584 5597